"Pseudo-MPEC" for P11JPs0

Created 2023 Sep 20 17:22:25 UT using Find_Orb

Click here for an explanation of pseudo-MPECs

 
 Astrometry: 
     P11JPs0* C2023 09 17(5jVwn9;tw*0!@L.Mak1Wf\kttwK^#StmdNjXA,Rj=@dC(7*N#anF51
     P11JPs0  C2023 09 17_-h3^9rbFFU0tCp`O4Pl.:5k,t?c53HvAstrometryU6[H.Cn.RYF51
     P11JPs0  C2023 09 17\RVR8+gBRO7A@Co9,+.'[Db),_R:81Qjg)]Lredacted;J%Xpt9oF51
     P11JPs0 3C2023 09 184yT:b6P`R3m8eaPP8tqBWxF7VF-0A!Z/h#b$-IWApo`1clickykJT14
     P11JPs0 3C2023 09 18sFQ:lBKmO5hPIw+8TGpherebJM]tvw,uhVI+VTyv$o%n70=4;/C+T14
     P11JPs0 3C2023 09 18g-B;*?GY.W(m36F62%_8swH6e=F.3mT35pqU=Q=u3dbJ0R6i8(biT14
     P11JPs0 KC2023 09 20.22119222 42 35.255-13 14 56.87   ~9K67 21.30GVNEOCPV06
     P11JPs0 KC2023 09 20.22350522 42 35.748-13 15 00.11   ~9K67 21.63GVNEOCPV06
     P11JPs0 KC2023 09 20.23044622 42 37.249-13 15 08.35   ~9K67 22.40GVNEOCPV06
     P11JPs0 KC2023 09 20.23276122 42 37.750-13 15 11.05   ~9K67 22.19GVNEOCPV06
     P11JPs0 KC2023 09 20.23507522 42 38.225-13 15 14.18   ~9K67 22.03GVNEOCPV06
     P11JPs0 KC2023 09 20.23739022 42 38.776-13 15 16.74   ~9K67 22.55GVNEOCPV06
     P11JPs0  C2023 09 20PS.Gy=[%d58+0/#;forLx(j`,T9CD+K,NV_\W8explanationS8qF51
     P11JPs0  C2023 09 20(drgN'ji-BKw)X+vUO[Z6/6uEHhy`_=BIidwpT@Wwl.Z$903iEm%F51

Station data:
(F51) Pan-STARRS 1, Haleakala  (N20.707234 W156.255910)  US/Hawaii.
   Observers J. Bulger, T. Lowe, A. Schultz, M. Willman. Measurers K.
   Chambers, S. Chastel, T. de Boer, L. Denneau, J. Fairlamb, H. Flewelling,
   M. Huber, C.-C. Lin, E. Magnier, Y. Ramanjooloo, R. Wainscoat, R. Weryk.
   1.8-m Ritchey-Chrétien + CCD.
(T14) Mauna Kea-UH/Tholen NEO Follow-Up (CFHT)  (N19.825252 W155.468876)
   US/Hawaii.  Observer R. Weryk. 3.6-m Canada-France-Hawaii Telescope.
(V06) Catalina Sky Survey-Kuiper  (N32.416844 W110.732550)  US/Arizona.
   Observers T. A. Pruyne, B. M. Africano, E. J. Christensen, G. A. Farneth,
   D. C. Fuls, A. R. Gibbs, A. D. Grauer, H. Gröller, J. A. Johnson, R. A.
   Kowalski, S. M. Larson, G. J. Leonard, D. Rankin, R. L. Seaman, F. C.
   Shelly, K. W. Wierzchoś. 1.55-m reflector + CCD.

Orbital elements:  P11JPs0
   Perihelion 2023 Oct 15.70212 +/- 0.013 TT = 16:51:03 (JD 2460233.20212)
Epoch 2023 Sep 20.0 TT = JDT 2460207.5   Earth MOID: 0.0728   Ma: 0.0967
M 349.44744253 +/- 0.043            (J2000 ecliptic)             AutoNEOCP
n   0.41057150 +/- 0.00189          Peri.  214.40015 +/- 0.023
a   1.79284817 +/- 0.00551          Node   167.09183 +/- 0.007
e   0.4058863 +/- 0.00174           Incl.    3.10010 +/- 0.008
P   2.40/876.81d           H 25.95  G  0.15   U  8.5
q 1.06515566 +/- 0.00015    Q 2.52054069 +/- 0.0109
From 14 observations 2023 Sept. 17-20; mean residual 0".15
Residuals in arcseconds: 
230917 F51  .13+  .00     230918 T14  .04+  .02-    230920 V06  .24-  .11-    
230917 F51  .06-  .05+    230920 V06  .06-  .23+    230920 V06  .55+  .15+    
230917 F51  .06-  .04-    230920 V06  .12-  .17-    230920 F51  .21-  .06+    
230918 T14  .01-  .02+    230920 V06  .02+  .08+    230920 F51  .19+  .09-    
230918 T14  .03-  .00     230920 V06  .08+  .20+    

Ephemerides (geocentric):
Date (UTC) HH   RA             Dec           delta  r     elong  mag " sig PA
---- --------  ------------   ------------  ------ ------ -----  --- --------
2023 09 20 17  22 44 35.795   -13 23 40.80  .09853 1.0973 159.8 22.1 .324 148
2023 09 20 18  22 44 46.366   -13 24 31.01  .09844 1.0972 159.8 22.1 .341 146
2023 09 20 19  22 44 56.963   -13 25 21.23  .09835 1.0971 159.8 22.1 .358 145
2023 09 20 20  22 45 07.586   -13 26 11.46  .09826 1.0970 159.7 22.1 .377 143
2023 09 20 21  22 45 18.235   -13 27 01.70  .09817 1.0969 159.7 22.1 .396 141
2023 09 20 22  22 45 28.910   -13 27 51.95  .09808 1.0968 159.7 22.1 .416 140
2023 09 20 23  22 45 39.610   -13 28 42.21  .09799 1.0967 159.7 22.1 .437 139
2023 09 21 00  22 45 50.337   -13 29 32.48  .09790 1.0966 159.7 22.1 .458 138
2023 09 21 01  22 46 01.089   -13 30 22.76  .09781 1.0965 159.7 22.1 .480 136
2023 09 21 02  22 46 11.868   -13 31 13.05  .09772 1.0964 159.7 22.1 .503 135
2023 09 21 03  22 46 22.672   -13 32 03.34  .09763 1.0963 159.7 22.0 .526 134
2023 09 21 04  22 46 33.503   -13 32 53.65  .09754 1.0962 159.6 22.0 .550 133
2023 09 21 05  22 46 44.359   -13 33 43.96  .09746 1.0961 159.6 22.0 .575 133
2023 09 21 06  22 46 55.242   -13 34 34.28  .09737 1.0960 159.6 22.0 .600 132
2023 09 21 07  22 47 06.151   -13 35 24.60  .09728 1.0959 159.6 22.0 .626 131
2023 09 21 08  22 47 17.086   -13 36 14.93  .09719 1.0958 159.6 22.0 .653 130
2023 09 21 09  22 47 28.048   -13 37 05.27  .09710 1.0957 159.6 22.0 .680 130
2023 09 21 10  22 47 39.036   -13 37 55.62  .09701 1.0956 159.6 22.0 .708 129
2023 09 21 11  22 47 50.050   -13 38 45.97  .09693 1.0955 159.6 22.0 .737 128
2023 09 21 12  22 48 01.090   -13 39 36.32  .09684 1.0954 159.5 22.0 .766 128
2023 09 21 13  22 48 12.157   -13 40 26.68  .09675 1.0953 159.5 22.0 .796 127
2023 09 21 14  22 48 23.251   -13 41 17.04  .09666 1.0952 159.5 22.0 .826 127
2023 09 21 15  22 48 34.371   -13 42 07.41  .09658 1.0951 159.5 22.0 .857 126
2023 09 21 16  22 48 45.517   -13 42 57.78  .09649 1.0950 159.5 22.0 .889 126
2023 09 21 17  22 48 56.691   -13 43 48.16  .09640 1.0949 159.5 22.0 .921 125
2023 09 21 18  22 49 07.890   -13 44 38.54  .09632 1.0948 159.5 22.0 .954 125
2023 09 21 19  22 49 19.117   -13 45 28.92  .09623 1.0947 159.5 22.0 .988 125
2023 09 21 20  22 49 30.370   -13 46 19.30  .09614 1.0946 159.4 22.0 1.02 124
2023 09 21 21  22 49 41.650   -13 47 09.69  .09606 1.0945 159.4 22.0 1.06 124
2023 09 21 22  22 49 52.956   -13 48 00.07  .09597 1.0944 159.4 22.0 1.09 124
2023 09 21 23  22 50 04.290   -13 48 50.46  .09588 1.0943 159.4 22.0 1.13 123
2023 09 22 00  22 50 15.650   -13 49 40.85  .09580 1.0942 159.4 22.0 1.16 123
2023 09 22 01  22 50 27.037   -13 50 31.24  .09571 1.0941 159.4 22.0 1.20 123
2023 09 22 02  22 50 38.451   -13 51 21.62  .09563 1.0940 159.4 22.0 1.24 122
2023 09 22 03  22 50 49.892   -13 52 12.01  .09554 1.0939 159.4 22.0 1.28 122
2023 09 22 04  22 51 01.360   -13 53 02.40  .09546 1.0938 159.4 22.0 1.32 122
2023 09 22 05  22 51 12.855   -13 53 52.78  .09537 1.0937 159.3 22.0 1.36 122
2023 09 22 06  22 51 24.377   -13 54 43.17  .09528 1.0936 159.3 22.0 1.40 121
2023 09 22 07  22 51 35.926   -13 55 33.55  .09520 1.0935 159.3 22.0 1.44 121
2023 09 22 08  22 51 47.503   -13 56 23.93  .09511 1.0934 159.3 22.0 1.48 121
2023 09 22 09  22 51 59.106   -13 57 14.31  .09503 1.0933 159.3 22.0 1.52 121
2023 09 22 10  22 52 10.737   -13 58 04.68  .09495 1.0932 159.3 22.0 1.57 120
2023 09 22 11  22 52 22.395   -13 58 55.05  .09486 1.0931 159.3 22.0 1.61 120
2023 09 22 12  22 52 34.080   -13 59 45.42  .09478 1.0930 159.3 22.0 1.66 120
2023 09 22 13  22 52 45.793   -14 00 35.78  .09469 1.0929 159.2 22.0 1.70 120
2023 09 22 14  22 52 57.532   -14 01 26.14  .09461 1.0928 159.2 22.0 1.75 120
2023 09 22 15  22 53 09.300   -14 02 16.49  .09452 1.0927 159.2 22.0 1.79 119
2023 09 22 16  22 53 21.094   -14 03 06.84  .09444 1.0926 159.2 22.0 1.84 119